Location: Delettes
(50.6178°N, 2.2123°E)
Time: 15:30:51
(UTC+00:00)

GP-B - Pass Details

Date: 27 February 2020
Orbit: 631 x 636 km, 89.8° (Epoch: 07 April)

Event Time Altitude Azimuth Distance (km) Brightness Sun altitude
Exits shadow 20:38:55 39° 314° (NW) 966 4.4 -30.3°
Drops below altitude 10° 20:42:10 10° 348° (NNW) 2,036 6.1 -30.8°
Sets 20:44:28 0° 355° (N) 2,949 7.0 -31.1°
